Regional Weather Roundup
Issued by NWS Little Rock, AR

Home | Current Version | Previous Version | Text Only | Print | Product List | Glossary On
Versions: 1 2 3 4 5 6 7 8 9 10 11 12 13 14 15 16 17 18 19 20 21 22 23 24 25 26 27 28 29 30 31 32
000
ASUS44 KLZK 172005
RWRLZK

WEATHER ROUNDUP FOR ARKANSAS
NATIONAL WEATHER SERVICE LITTLE ROCK AR
200 PM CST SUN DEC 17 2017

NOTE: "FAIR" INDICATES FEW OR NO CLOUDS BELOW 12,000 FEET WITH NO
SIGNIFICANT WEATHER AND/OR OBSTRUCTIONS TO VISIBILITY.

ARZ001-003-010-029-172100-
NORTHWEST ARKANSAS

CITY           SKY/WX    TMP DP  RH WIND       PRES   REMARKS
FAYETTEVILLE   CLOUDY    48  47  96 SW3       30.03F
FORT SMITH     CLOUDY    50  48  93 E5        30.04F
HARRISON       CLOUDY    47  47 100 CALM      30.02F FOG
BENTONVILLE    CLOUDY    45  44  97 SW3       30.04F FOG
ROGERS         CLOUDY    46  44  93 SW7       30.03S
SILOAM SPGS    CLOUDY    46  45  96 SW3       30.03F FOG
HIGHFILL       CLOUDY    46  45  96 SW3       30.02F FOG
SPRINGDALE     CLOUDY    46  46 100 SW3       30.04F FOG
$$

ARZ004-005-016-172100-
NORTH CENTRAL ARKANSAS

CITY           SKY/WX    TMP DP  RH WIND       PRES   REMARKS
BATESVILLE     CLOUDY    47  44  90 E5        30.07F
FLIPPIN        CLOUDY    49  45  86 CALM      30.05S
MTN HOME       CLOUDY    48  46  93 CALM      30.03
$$

ARZ040-041-172100-
WEST CENTRAL ARKANSAS

CITY           SKY/WX    TMP DP  RH WIND       PRES   REMARKS
MENA           CLOUDY    52  52 100 CALM      30.04S
MOUNT IDA      CLOUDY    49  48  97 CALM      30.03S
$$

ARZ009-017-025-026-028-172100-
NORTHEAST ARKANSAS

CITY           SKY/WX    TMP DP  RH WIND       PRES   REMARKS
CORNING        CLOUDY    48  46  93 SW5       30.08S
JONESBORO      CLOUDY    49  44  83 S5        30.08S
NEWPORT        CLOUDY    46  43  89 S5        30.09S
WALNUT RIDGE   CLOUDY    47  42  83 SW5       30.08S
BLYTHEVILLE    CLOUDY    47  45  93 SW3       30.09S
$$

ARZ022-023-033-042-044-172100-
CENTRAL ARKANSAS

CITY           SKY/WX    TMP DP  RH WIND       PRES   REMARKS
LITTLE ROCK    CLOUDY    46  45  96 NW3       30.08F
N LITTLE ROCK    N/A     45  43  95 CALM      30.10F
JACKSONVILLE   CLOUDY    46  46  99 CALM      30.07F
SEARCY         CLOUDY    47  47 100 SW3       30.09F
HOT SPRINGS    CLOUDY    48  47  96 S3        30.06F
RUSSELLVILLE   CLOUDY    50  46  86 E6        30.05F
CLINTON        CLOUDY    48  45  87 CALM      30.06F
$$

ARZ036-172100-
EAST ARKANSAS

CITY           SKY/WX    TMP DP  RH WIND       PRES   REMARKS
WEST MEMPHIS   CLOUDY    46  45  96 SW6       30.09R
$$

ARZ050-053-066-070-073-172100-
SOUTHWEST ARKANSAS

CITY           SKY/WX    TMP DP  RH WIND       PRES   REMARKS
ARKADELPHIA    CLOUDY    46  45  96 S3        30.10R
CAMDEN         CLOUDY    48  43  81 CALM      30.09R
TEXARKANA      CLOUDY    46  46 100 SE3       30.08S FOG
EL DORADO      CLOUDY    46  46 100 CALM      30.09S
DE QUEEN       CLOUDY    48  47  96 SE6       30.05F FOG
$$

ARZ056-057-069-172100-
SOUTHEAST ARKANSAS

CITY           SKY/WX    TMP DP  RH WIND       PRES   REMARKS
PINE BLUFF     CLOUDY    45  43  93 CALM      30.08F FOG
STUTTGART      CLOUDY    45  43  93 NE5       30.08F
MONTICELLO     CLOUDY    47  44  90 CALM      30.09S

$$






USA.gov is the U.S. government's official web portal to all federal, state and local government web resources and services.